Back to catalog

STARLINK-31038

AliveCommunicationsVLEO
NORAD 58605·PAYLOAD·🇺🇸 United States

Launched Dec 19, 2023 from Cape Canaveral Space Force Station

Loading…

Next Passes (next 24 hours)

TLE

FreshSource: CelesTrak SupGP

Epoch: Sep 14, 2026, 22:15 UTC

1 58605C 23200S   26257.92756944  .00084585  00000+0  15300-2 0  2576
2 58605  42.9944 167.1305 0019860 195.6135 116.3957 15.48533954    15

Track STARLINK-31038 in real time with AllMySat

Download on the App Store